timestamp,surface_pressure_avg,surface_temp_avg,battery_voltage,lat,long
2022-10-03 00:09:00+00:00,234.5864,15.0,11.37,47.84626,-54.09684
2022-10-03 00:19:00+00:00,236.7864,15.0,11.3,47.84626,-54.09684
2022-10-03 00:29:00+00:00,233.7631,15.0,11.3,47.84626,-54.09684
2022-10-03 00:39:00+00:00,236.7097,14.99,11.3,47.84626,-54.09684
2022-10-03 00:49:00+00:00,241.2547,14.99,11.3,47.84626,-54.09684
2022-10-03 00:59:00+00:00,239.9497,14.99,11.3,47.84626,-54.09684
2022-10-03 01:09:00+00:00,241.8264,14.96,11.3,47.84626,-54.09684
2022-10-03 01:19:00+00:00,247.4864,14.93,11.3,47.84626,-54.09684
2022-10-03 01:29:00+00:00,247.2147,14.9,11.3,47.84626,-54.09684
2022-10-03 01:39:00+00:00,246.3881,14.91,11.3,47.84626,-54.09684
2022-10-03 01:49:00+00:00,256.2764,14.9,11.3,47.84626,-54.09684
2022-10-03 01:59:00+00:00,265.5663,14.9,11.3,47.84626,-54.09684
2022-10-03 02:09:00+00:00,262.1231,14.86,11.3,47.84626,-54.09684
2022-10-03 02:19:00+00:00,262.8481,14.87,11.3,47.84626,-54.09684
2022-10-03 02:29:00+00:00,272.6448,14.83,11.3,47.84626,-54.09684
2022-10-03 02:39:00+00:00,277.748,14.8,11.3,47.84626,-54.09684
2022-10-03 02:49:00+00:00,274.178,14.8,11.3,47.84626,-54.09684
2022-10-03 02:59:00+00:00,277.3397,14.8,11.3,47.84626,-54.09684
2022-10-03 03:09:00+00:00,286.093,14.8,11.3,47.84626,-54.09684
2022-10-03 03:19:00+00:00,286.9347,14.8,11.3,47.84626,-54.09684
2022-10-03 03:29:00+00:00,286.1614,14.8,11.3,47.84626,-54.09684
2022-10-03 03:39:00+00:00,293.4747,14.8,11.3,47.84626,-54.09684
2022-10-03 03:49:00+00:00,302.7731,14.8,11.3,47.84626,-54.09684
2022-10-03 03:59:00+00:00,301.178,14.71,11.3,47.84626,-54.09684
2022-10-03 04:09:00+00:00,300.6912,14.7,11.3,47.84626,-54.09684
2022-10-03 04:19:00+00:00,307.3879,14.7,11.3,47.84626,-54.09684
2022-10-03 04:29:00+00:00,308.043,14.7,11.3,47.84626,-54.09684
2022-10-03 04:39:00+00:00,305.5313,14.7,11.3,47.84626,-54.09684
2022-10-03 04:49:00+00:00,309.7081,14.7,11.3,47.84626,-54.09684
2022-10-03 04:59:00+00:00,313.7595,14.7,11.3,47.84626,-54.09684
2022-10-03 05:09:00+00:00,311.848,14.74,11.3,47.84626,-54.09684
2022-10-03 05:19:01+00:00,310.3729,14.7,11.3,47.84626,-54.09684
2022-10-03 05:29:01+00:00,316.1462,14.7,11.3,47.84626,-54.09684
2022-10-03 05:39:01+00:00,315.8998,14.7,11.3,47.84626,-54.09684
2022-10-03 05:49:01+00:00,311.5646,14.76,11.3,47.84626,-54.09684
2022-10-03 05:59:01+00:00,311.1364,14.7,11.3,47.84626,-54.09684
2022-10-03 06:09:01+00:00,312.0697,14.65,11.3,47.84626,-54.09684
2022-10-03 06:19:00+00:00,308.1047,14.7,11.3,47.84626,-54.09684
2022-10-03 06:29:00+00:00,304.2297,14.74,11.3,47.84626,-54.09684
2022-10-03 06:39:00+00:00,302.3014,14.7,11.3,47.84626,-54.09684
2022-10-03 06:49:00+00:00,297.6964,14.7,11.3,47.84626,-54.09684
2022-10-03 06:59:00+00:00,292.2397,14.7,11.3,47.84626,-54.09684
2022-10-03 07:09:00+00:00,284.6697,14.74,11.3,47.84626,-54.09684
2022-10-03 07:19:00+00:00,277.3714,14.8,11.3,47.84626,-54.09684
2022-10-03 07:29:00+00:00,271.5947,14.8,11.3,47.84626,-54.09684
2022-10-03 07:39:00+00:00,267.5364,14.7,11.3,47.84626,-54.09684
2022-10-03 07:49:00+00:00,259.2347,14.7,11.3,47.84626,-54.09684
2022-10-03 07:59:00+00:00,250.1614,14.76,11.3,47.84626,-54.09684
2022-10-03 08:09:00+00:00,247.8098,14.79,11.3,47.84626,-54.09684
2022-10-03 08:19:00+00:00,244.4097,14.8,11.3,47.84626,-54.09684
2022-10-03 08:29:00+00:00,234.9264,14.8,11.3,47.84626,-54.09684
2022-10-03 08:39:00+00:00,227.7381,14.6,11.3,47.84626,-54.09684
2022-10-03 08:49:00+00:00,225.4182,14.64,11.3,47.84626,-54.09684
2022-10-03 08:59:00+00:00,219.3181,14.69,11.3,47.84626,-54.09684
2022-10-03 09:09:00+00:00,212.7498,14.69,11.3,47.84626,-54.09684
2022-10-03 09:19:00+00:00,211.4115,14.7,11.22,47.84626,-54.09684
2022-10-03 09:29:00+00:00,211.1564,14.7,11.22,47.84626,-54.09684
2022-10-03 09:39:00+00:00,208.7297,14.7,11.22,47.84626,-54.09684
2022-10-03 09:49:00+00:00,209.5048,14.7,11.22,47.84626,-54.09684
2022-10-03 09:59:00+00:00,212.4533,14.7,11.22,47.84626,-54.09684
2022-10-03 10:09:00+00:00,211.9032,14.7,11.22,47.84626,-54.09684
2022-10-03 10:19:00+00:00,210.8298,14.7,11.3,47.84626,-54.09684
2022-10-03 10:29:00+00:00,212.9248,14.7,11.3,47.84626,-54.09684
2022-10-03 10:39:00+00:00,213.5981,14.7,11.3,47.84626,-54.09684
2022-10-03 10:49:00+00:00,214.1748,14.7,11.3,47.84626,-54.09684
2022-10-03 10:59:00+00:00,214.308,14.7,11.3,47.84626,-54.09684
2022-10-03 11:09:00+00:00,215.2114,14.7,11.3,47.84626,-54.09684
2022-10-03 11:19:00+00:00,217.583,14.7,11.53,47.84626,-54.09684
2022-10-03 11:29:00+00:00,218.7581,14.7,11.53,47.84626,-54.09684
2022-10-03 11:39:00+00:00,220.1314,14.71,11.53,47.84626,-54.09684
2022-10-03 11:49:00+00:00,222.9731,14.7,11.53,47.84626,-54.09684
2022-10-03 11:59:00+00:00,223.7813,14.71,11.53,47.84626,-54.09684
2022-10-03 12:09:00+00:00,222.1548,14.73,11.53,47.84626,-54.09684
2022-10-03 12:19:00+00:00,224.5781,14.7,11.7,47.84626,-54.09684
2022-10-03 12:29:00+00:00,226.0681,14.7,11.7,47.84626,-54.09684
2022-10-03 12:39:00+00:00,226.1964,14.7,11.7,47.84626,-54.09684
2022-10-03 12:49:00+00:00,225.6047,14.7,11.7,47.84626,-54.09684
2022-10-03 12:59:00+00:00,229.4981,14.7,11.7,47.84626,-54.09684
2022-10-03 13:09:00+00:00,231.0564,14.7,11.7,47.84626,-54.09684
2022-10-03 13:19:00+00:00,234.3248,14.7,11.77,47.84626,-54.09684
2022-10-03 13:29:00+00:00,237.8415,14.7,11.77,47.84626,-54.09684
2022-10-03 13:39:00+00:00,242.2015,14.7,11.77,47.84626,-54.09684
2022-10-03 13:49:00+00:00,244.9865,14.7,11.77,47.84626,-54.09684
2022-10-03 13:59:00+00:00,250.8598,14.7,11.77,47.84626,-54.09684
2022-10-03 14:09:00+00:00,257.9064,14.7,11.77,47.84626,-54.09684
2022-10-03 14:19:00+00:00,261.4665,14.67,11.61,47.84626,-54.09684
2022-10-03 14:29:00+00:00,264.4198,14.65,11.61,47.84626,-54.09684
2022-10-03 14:39:00+00:00,271.9547,14.65,11.61,47.84626,-54.09684
2022-10-03 14:49:00+00:00,280.7464,14.6,11.61,47.84626,-54.09684
2022-10-03 14:59:00+00:00,283.5631,14.6,11.61,47.84626,-54.09684
2022-10-03 15:09:00+00:00,287.2364,14.6,11.61,47.84626,-54.09684
2022-10-03 15:19:00+00:00,296.2064,14.5,11.61,47.84626,-54.09684
2022-10-03 15:29:00+00:00,302.1562,14.5,11.61,47.84626,-54.09684
2022-10-03 15:39:00+00:00,302.6247,14.5,11.61,47.84626,-54.09684
2022-10-03 15:49:00+00:00,308.5331,14.5,11.61,47.84626,-54.09684
2022-10-03 15:59:00+00:00,316.4514,14.5,11.61,47.84626,-54.09684
2022-10-03 16:09:00+00:00,319.4329,14.5,11.61,47.84626,-54.09684
2022-10-03 16:19:00+00:00,320.1746,14.5,11.7,47.84626,-54.09684
2022-10-03 16:29:00+00:00,324.9729,14.5,11.7,47.84626,-54.09684
2022-10-03 16:39:00+00:00,327.963,14.5,11.7,47.84626,-54.09684
2022-10-03 16:49:00+00:00,329.3929,14.5,11.7,47.84626,-54.09684
2022-10-03 16:59:00+00:00,333.6597,14.48,11.7,47.84626,-54.09684
2022-10-03 17:09:00+00:00,337.1681,14.48,11.7,47.84626,-54.09684
2022-10-03 17:19:00+00:00,337.8812,14.48,11.7,47.84626,-54.09684
2022-10-03 17:29:00+00:00,339.4364,14.49,11.7,47.84626,-54.09684
2022-10-03 17:39:00+00:00,339.18300000000005,14.5,11.7,47.84626,-54.09684
2022-10-03 17:49:00+00:00,339.343,14.5,11.7,47.84626,-54.09684
2022-10-03 17:59:00+00:00,339.6413,14.5,11.7,47.84626,-54.09684
2022-10-03 18:09:00+00:00,339.0596,14.54,11.7,47.84626,-54.09684
2022-10-03 18:19:00+00:00,333.9063,14.58,11.53,47.84626,-54.09684
2022-10-03 18:29:00+00:00,332.4463,14.59,11.53,47.84626,-54.09684
2022-10-03 18:39:00+00:00,333.8531,14.6,11.53,47.84626,-54.09684
2022-10-03 18:49:00+00:00,329.3513,14.6,11.53,47.84626,-54.09684
2022-10-03 18:59:00+00:00,319.5312,14.6,11.53,47.84626,-54.09684
2022-10-03 19:09:00+00:00,316.9582,14.6,11.53,47.84626,-54.09684
2022-10-03 19:19:00+00:00,314.4547,14.6,11.46,47.84626,-54.09684
2022-10-03 19:29:00+00:00,307.1947,14.6,11.46,47.84626,-54.09684
2022-10-03 19:39:00+00:00,298.6214,14.6,11.46,47.84626,-54.09684
2022-10-03 19:49:00+00:00,295.813,14.6,11.46,47.84626,-54.09684
2022-10-03 19:59:00+00:00,291.39799999999997,14.6,11.46,47.84626,-54.09684
2022-10-03 20:09:00+00:00,284.0131,14.59,11.46,47.84626,-54.09684
2022-10-03 20:19:00+00:00,275.5681,14.59,11.46,47.84626,-54.09684
2022-10-03 20:29:00+00:00,271.2764,14.57,11.46,47.84626,-54.09684
2022-10-03 20:39:00+00:00,265.9697,14.59,11.46,47.84626,-54.09684
2022-10-03 20:49:00+00:00,260.6931,14.59,11.46,47.84626,-54.09684
2022-10-03 20:59:00+00:00,255.1231,14.59,11.46,47.84626,-54.09684
2022-10-03 21:09:00+00:00,251.5914,14.59,11.46,47.84626,-54.09684
2022-10-03 21:19:00+00:00,248.4214,14.58,11.37,47.84626,-54.09684
2022-10-03 21:29:00+00:00,243.9997,14.57,11.37,47.84626,-54.09684
2022-10-03 21:39:00+00:00,238.7914,14.56,11.37,47.84626,-54.09684
2022-10-03 21:49:00+00:00,234.3481,14.56,11.37,47.84626,-54.09684
2022-10-03 21:59:00+00:00,233.7514,14.5,11.37,47.84626,-54.09684
2022-10-03 22:09:00+00:00,231.6697,14.5,11.37,47.84626,-54.09684
2022-10-03 22:19:00+00:00,227.588,14.5,11.37,47.84626,-54.09684
2022-10-03 22:29:00+00:00,227.8448,14.5,11.37,47.84626,-54.09684
2022-10-03 22:39:00+00:00,231.5031,14.5,11.37,47.84626,-54.09684
2022-10-03 22:49:00+00:00,229.9864,14.5,11.37,47.84626,-54.09684
2022-10-03 22:59:00+00:00,225.6231,14.5,11.37,47.84626,-54.09684
2022-10-03 23:09:00+00:00,224.6248,14.5,11.37,47.84626,-54.09684
2022-10-03 23:19:00+00:00,227.5997,14.5,11.37,47.84626,-54.09684
2022-10-03 23:29:00+00:00,228.5531,14.5,11.37,47.84626,-54.09684
2022-10-03 23:39:00+00:00,226.3748,14.5,11.37,47.84626,-54.09684
2022-10-03 23:49:00+00:00,225.7464,14.5,11.37,47.84626,-54.09684
2022-10-03 23:59:00+00:00,225.2681,14.5,11.37,47.84626,-54.09684
